This demonstration page uses our WeatherBlox Daily Observations layout. Learn more.

Left ArrowRight Arrow

39.95238, -75.16362

Hourly Observations for February 4, 2017

Temp ( °F °C ) Dew Point ( °F °C ) Humidity (%) Winds ( mph kmh ) Pressure ( in mb ) Visibility ( mi km ) Precip ( " mm )
12:54 am 00:54 Mostly Clear 27 -2.8 9 -12.8 46 46 NW 15 24 30.31 1026 10 16 0.00 0.00
1:54 am 01:54 Partly Cloudy 26 -3.3 9 -12.8 48 48 NW 17 28 30.33 1027 10 16 0.00 0.00
2:54 am 02:54 Mostly Cloudy 25 -3.9 4 -15.6 40 40 NNW 20 31 30.35 1028 10 16 0.00 0.00
3:54 am 03:54 Mostly Clear 24 -4.4 5 -15 44 44 NNW 13 20 30.37 1029 10 16 0.00 0.00
4:54 am 04:54 Clear 23 -5 2 -16.7 40 40 NW 12 19 30.39 1029 10 16 0.00 0.00
5:54 am 05:54 Clear 23 -5 3 -16.1 42 42 NW 13 20 30.42 1030 10 16 0.00 0.00
6:54 am 06:54 Clear 22 -5.6 3 -16.1 44 44 WNW 9 15 30.44 1031 10 16 0.00 0.00
7:54 am 07:54 Sunny 23 -5 4 -15.6 44 44 WNW 10 17 30.46 1032 10 16 0.00 0.00
8:54 am 08:54 Sunny 24 -4.4 5 -15 44 44 WNW 14 22 30.48 1032 10 16 0.00 0.00
9:54 am 09:54 Sunny 26 -3.3 5 -15 40 40 WNW 10 17 30.48 1032 10 16 0.00 0.00
10:54 am 10:54 Sunny 29 -1.7 5 -15 36 36 W 15 24 30.48 1032 10 16 0.00 0.00
11:54 am 11:54 Sunny 31 -0.6 5 -15 33 33 W 16 26 30.44 1031 10 16 0.00 0.00
12:54 pm 12:54 Sunny 32 0 6 -14.4 33 33 WSW 13 20 30.40 1030 10 16 0.00 0.00
1:54 pm 13:54 Mostly Sunny 34 1.1 5 -15 29 29 W 12 19 30.37 1029 10 16 0.00 0.00
2:54 pm 14:54 Partly Cloudy 35 1.7 4 -15.6 27 27 W 9 15 30.37 1028 10 16 0.00 0.00
3:54 pm 15:54 Partly Cloudy 36 2.2 4 -15.6 26 26 WNW 13 20 30.36 1028 10 16 0.00 0.00
4:54 pm 16:54 Mostly Cloudy 35 1.7 6 -14.4 29 29 W 13 20 30.35 1028 10 16 0.00 0.00
5:54 pm 17:54 Mostly Cloudy 34 1.1 7 -13.9 32 32 W 10 17 30.36 1028 10 16 0.00 0.00
6:54 pm 18:54 Cloudy 33 0.6 7 -13.9 33 33 W 10 17 30.35 1028 10 16 0.00 0.00
7:54 pm 19:54 Cloudy 33 0.6 10 -12.2 38 38 SW 5 7 30.33 1027 10 16 0.00 0.00
8:54 pm 20:54 Cloudy 33 0.6 11 -11.7 40 40 SW 8 13 30.35 1028 10 16 0.00 0.00
9:54 pm 21:54 Cloudy 32 0 13 -10.6 45 45 SSW 7 11 30.33 1027 10 16 0.00 0.00
10:54 pm 22:54 Mostly Cloudy 31 -0.6 13 -10.6 47 47 SSW 9 15 30.31 1027 10 16 0.00 0.00
11:54 pm 23:54 Cloudy 31 -0.6 13 -10.6 47 47 SSW 8 13 30.29 1026 10 16 0.00 0.00

Powered by AerisWeather